This is the latest recevied weather packets stored in our database for station/object KC0UFP. If no packets are shown the sender has not sent any weather packets the latest 10 day(s).
| Time | Temp. | Humidity | Pressure | Rain* | Wind** | Luminosity | Snow |
|---|---|---|---|---|---|---|---|
| 1777902746 | 19.44° C | 67% | 1011.8 hPa | 0 mm | - | 313 W/m² | - |
| 1777902444 | 19.44° C | 68% | 1012.3 hPa | 0 mm | - | 336 W/m² | - |
| 1777902140 | 19.44° C | 68% | 1012 hPa | 0 mm | - | 471 W/m² | - |
| 1777901839 | 18.89° C | 70% | 1012.3 hPa | 0 mm | - | 368 W/m² | - |
| 1777901536 | 18.89° C | 70% | 1012.1 hPa | 0 mm | - | 354 W/m² | - |
| 1777901233 | 18.33° C | 71% | 1012 hPa | 0 mm | - | 343 W/m² | - |
| 1777900930 | 18.33° C | 72% | 1012.2 hPa | 0 mm | - | 310 W/m² | - |
| 1777900628 | 17.78° C | 72% | 1012.1 hPa | 0 mm | - | 293 W/m² | - |
| 1777900324 | 17.78° C | 73% | 1012.2 hPa | 0 mm | - | 264 W/m² | - |
| 1777900022 | 17.78° C | 73% | 1012.3 hPa | 0 mm | - | 281 W/m² | - |
| 1777899718 | 17.22° C | 74% | 1012 hPa | 0 mm | - | 226 W/m² | - |
| 1777899415 | 17.22° C | 74% | 1012.2 hPa | 0 mm | - | 232 W/m² | - |
| 1777899113 | 16.67° C | 75% | 1012.1 hPa | 0 mm | - | 185 W/m² | - |
| 1777898810 | 16.67° C | 76% | 1011.9 hPa | 0 mm | - | 147 W/m² | - |
| 1777898508 | 16.67° C | 76% | 1012.2 hPa | 0 mm | - | 161 W/m² | - |
| 1777898205 | 16.67° C | 76% | 1012.1 hPa | 0 mm | - | 175 W/m² | - |
| 1777897902 | 16.11° C | 77% | 1012.2 hPa | 0 mm | - | 173 W/m² | - |
| 1777897598 | 16.11° C | 77% | 1012.1 hPa | 0 mm | - | 146 W/m² | - |
| 1777897293 | 15.56° C | 78% | 1012.1 hPa | 0 mm | - | 120 W/m² | - |
| 1777896990 | 15.56° C | 79% | 1012.1 hPa | 0 mm | - | 98 W/m² | - |
| 1777896687 | 15° C | 79% | 1012.1 hPa | 0 mm | - | 67 W/m² | - |
| 1777896384 | 15° C | 79% | 1012.1 hPa | 0 mm | - | 52 W/m² | - |
| 1777896082 | 15° C | 79% | 1012.1 hPa | 0 mm | - | 44 W/m² | - |
| 1777895780 | 15° C | 79% | 1012.2 hPa | 0 mm | - | 40 W/m² | - |
| 1777895477 | 15° C | 79% | 1011.9 hPa | 0 mm | - | 35 W/m² | - |
* Rain latest hour (hover to see other rain measurements)
** Current wind speed in m/s (hover to see current wind gust speed)